Find Starlink 34682

NORAD ID: 64854 Int'l Des: 2025-152 Owner: SPXS Country: US Constellation: starlink operational
LEOCIRCULARRETROGRADESSO

当前视图

正在加载3D地球...

About Starlink 34682

Starlink 34682 (NORAD 64854) is a starlink constellation satellite (v2 mini) launched Jul 19, 2025 by SPXS of US. It operates in LEO, CIRCULAR, RETROGRADE, SSO orbit with a mass of 575.00 kg.

即将过境

Passes for default location (London). Set your location on the main map for personalized predictions.

高度历史

Loading altitude history...

两行轨道根数

1 64854U 25152N 26263.54572733 .00019586 00000-0 60739-3 0 9994
2 64854 97.2840 114.1501 0002455 76.9003 283.2513 15.33445545 64837
Epoch: Sep 20, 2026 • Age: 18 hours

当前状态

高度 475.3 km
远地点 / 近地点 N/A
速度 7.64 km/s
星下点 66.44°N, 1.5°W
发射日期 Jul 19, 2025
运行时间 1.1 years
类型 internet

技术详情

分类 Payload
质量 575.00 kg
干质量 530.00 kg
长度 0.30 m
跨度 29.00 m
形状 ? Box + pan
制造商 SPXS
平台类型 Starlink V2MO
阶段状态 In Orbit
所有者/国家 SPXS/US

Most Searched